Weather History for Norfolk, NE

Change the Weather History Date:

Sunday, June 30, 2013

  Actual Average Record
Temperature  
Mean Temperature 66 °F 74 °F  
Max Temperature 77 °F 86 °F 104 °F (1961)
Min Temperature 54 °F 62 °F 44 °F (1904)
Degree Days  
Heating Degree Days 0 0  
Month to date heating degree days 42 28  
Since 1 June heating degree days 42 30  
Since 1 July heating degree days 6809 6643  
Cooling Degree Days 1 9  
Month to date cooling degree days 183 186  
Year to date cooling degree days 247 247  
Since 1 June cooling degree days 183 186  
Growing Degree Days 16 (Base 50)    
Moisture  
Dew Point 53 °F    
Average Humidity 65    
Maximum Humidity 93    
Minimum Humidity 36    
Precipitation  
Precipitation 0.00 in 0.13 in 1.15 in (2014)
Month to date precipitation 2.18 4.26  
Year to date precipitation 13.60 13.96  
Snow  
Snow 0.00 in 0.00 in - ()
Month to date snowfall 0.0 0.0  
Since 1 July snowfall 27.3 30.5  
Snow Depth 0.00 in    
Sea Level Pressure  
Sea Level Pressure 30.08 in    
Wind  
Wind Speed 6 mph (North)    
Max Wind Speed 18 mph    
Max Gust Speed 24 mph    
Visibility 10 miles    
Events      
T = Trace of Precipitation, MM = Missing Value Source: NWS Daily Summary

Daily Weather History Graph

Daily Weather History Graph

Search for Another Location

Airport:

Trip Planner

Search our weather history database for the weather conditions in past years. The results will help you decide how hot, cold, wet, or windy it might be!

Date:

Astronomy

Jun. 30, 2013 Rise Set
Actual Time 5:57 AM CDT 9:09 PM CDT
Civil Twilight 5:23 AM CDT 9:43 PM CDT
Nautical Twilight 4:39 AM CDT 10:27 PM CDT
Astronomical Twilight 3:46 AM CDT 11:20 PM CDT
Moon 1:01 AM CDT (6/30) 2:21 PM CDT (6/30)
Length of Visible Light 16h 20m
Length of Day
15h 11m
Last Quarter, 45% of the Moon is Illuminated
Jun 30
Last Quarter
Jul 8
New
Jul 15
First Quarter
Jul 22
Full
Jul 29
Last Quarter

Hourly Weather History & Observations

Time (CDT) Temp. Dew Point Humidity Pressure Visibility Wind Dir Wind Speed Gust Speed Precip Events Conditions
12:56 AM 63.0 °F 57.9 °F 84% 30.01 in 10.0 mi WNW 3.5 mph - N/A   Mostly Cloudy
1:56 AM 62.1 °F 57.0 °F 84% 30.02 in 10.0 mi WNW 4.6 mph - N/A   Mostly Cloudy
2:56 AM 61.0 °F 55.9 °F 83% 30.03 in 10.0 mi NW 3.5 mph - N/A   Clear
3:56 AM 57.9 °F 55.0 °F 90% 30.03 in 10.0 mi Calm Calm - N/A   Clear
4:56 AM 55.9 °F 54.0 °F 93% 30.02 in 10.0 mi Calm Calm - N/A   Clear
5:56 AM 55.0 °F 53.1 °F 93% 30.04 in 10.0 mi NW 4.6 mph - N/A   Clear
6:56 AM 57.9 °F 55.0 °F 90% 30.08 in 10.0 mi WNW 5.8 mph - N/A   Clear
7:56 AM 60.1 °F 57.0 °F 90% 30.09 in 10.0 mi WNW 3.5 mph - N/A   Clear
8:56 AM 66.0 °F 55.9 °F 70% 30.08 in 10.0 mi North 5.8 mph - N/A   Clear
9:56 AM 69.1 °F 57.9 °F 68% 30.09 in 10.0 mi Calm Calm - N/A   Clear
10:56 AM 73.0 °F 57.0 °F 57% 30.10 in 10.0 mi North 9.2 mph 16.1 mph N/A   Clear
11:56 AM 73.9 °F 54.0 °F 50% 30.10 in 10.0 mi NE 15.0 mph - N/A   Partly Cloudy
12:56 PM 75.0 °F 54.0 °F 48% 30.09 in 10.0 mi NE 15.0 mph 21.9 mph N/A   Partly Cloudy
1:56 PM 75.0 °F 48.9 °F 40% 30.10 in 9.0 mi NNE 10.4 mph 18.4 mph N/A   Clear
2:56 PM 75.9 °F 48.9 °F 38% 30.09 in 10.0 mi NE 11.5 mph - N/A   Clear
3:56 PM 77.0 °F 50.0 °F 39% 30.10 in 10.0 mi ENE 9.2 mph - N/A   Clear
4:56 PM 75.9 °F 48.9 °F 38% 30.10 in 10.0 mi NNE 11.5 mph - N/A   Clear
5:56 PM 75.0 °F 46.9 °F 37% 30.11 in 10.0 mi NNE 10.4 mph - N/A   Clear
6:56 PM 73.9 °F 48.9 °F 41% 30.10 in 10.0 mi NE 5.8 mph - N/A   Clear
7:56 PM 72.0 °F 50.0 °F 46% 30.11 in 10.0 mi NNE 3.5 mph - N/A   Clear
8:56 PM 68.0 °F 50.0 °F 52% 30.11 in 9.0 mi North 5.8 mph - N/A   Clear
9:56 PM 63.0 °F 52.0 °F 67% 30.13 in 10.0 mi Calm Calm - N/A   Clear
10:56 PM 61.0 °F 52.0 °F 72% 30.14 in 9.0 mi Calm Calm - N/A   Clear
11:56 PM 55.0 °F 51.1 °F 86% 30.15 in 9.0 mi West 3.5 mph - N/A   Clear